Voltar ao catálogo

BEIDOU 15

AtivoNavegaçãoMEO
NORAD 38775·PAYLOAD·🇨🇳 China

Lançado Sep 18, 2012 de Xichang Satellite Launch Center

Loading…

Próximas Passagens (próximas 24 horas)

TLE

AtualizadoSource: Space-Track

Época: Sep 14, 2026, 12:03 UTC

1 38775U 12050B   26257.50230771 -.00000048  00000-0  00000-0 0  9998
2 38775  56.6267  59.9458 0010921   4.1523 355.8681  1.86230944 94974

Acompanhe BEIDOU 15 em tempo real com AllMySat

Download on the App Store